Time,TemperatureF,DewpointF,PressureIn,WindDirection,WindDirectionDegrees,WindSpeedMPH,WindSpeedGustMPH,Humidity,HourlyPrecipIn,Conditions,Clouds,dailyrainin,SoftwareType,DateUTC
2013-07-20 00:30:00,65.0,-99.9,29.64,SW,230,20.0,23.0,-999,-99.99,,,-99.99,,2013-07-20 04:30:00,
2013-07-20 00:44:00,63.0,-99.9,29.64,WSW,246,17.0,21.0,-999,-99.99,,,-99.99,,2013-07-20 04:44:00,
2013-07-20 00:52:00,63.0,-99.9,29.64,WSW,246,17.0,21.0,-999,-99.99,,,-99.99,,2013-07-20 04:52:00,
2013-07-20 01:02:00,65.0,-99.9,29.64,SW,230,20.0,23.0,-999,-99.99,,,-99.99,,2013-07-20 05:02:00,
2013-07-20 01:12:00,65.0,-99.9,29.64,SW,230,20.0,23.0,-999,-99.99,,,-99.99,,2013-07-20 05:12:00,
2013-07-20 01:22:00,65.0,-99.9,29.64,SW,230,20.0,23.0,-999,-99.99,,,-99.99,,2013-07-20 05:22:00,
2013-07-20 01:52:00,64.0,-99.9,29.63,SW,234,17.0,19.0,-999,-99.99,,,-99.99,,2013-07-20 05:52:00,
2013-07-20 02:43:00,61.0,-99.9,29.63,WSW,244,10.0,13.0,-999,-99.99,,,-99.99,,2013-07-20 06:43:00,
2013-07-20 02:52:00,61.0,-99.9,29.63,WSW,244,10.0,13.0,-999,-99.99,,,-99.99,,2013-07-20 06:52:00,
2013-07-20 04:00:00,60.0,-99.9,29.60,SW,228,11.0,13.0,-999,-99.99,,,-99.99,,2013-07-20 08:00:00,
2013-07-20 04:44:00,60.0,-99.9,29.60,SW,228,11.0,13.0,-999,-99.99,,,-99.99,,2013-07-20 08:44:00,
2013-07-20 04:52:00,60.0,-99.9,29.60,SW,228,11.0,13.0,-999,-99.99,,,-99.99,,2013-07-20 08:52:00,
2013-07-20 05:00:00,59.0,-99.9,29.61,SW,236,9.0,11.0,-999,-99.99,,,-99.99,,2013-07-20 09:00:00,
2013-07-20 05:43:00,59.0,-99.9,29.61,SW,236,9.0,11.0,-999,-99.99,,,-99.99,,2013-07-20 09:43:00,
2013-07-20 05:53:00,59.0,-99.9,29.61,SW,236,9.0,11.0,-999,-99.99,,,-99.99,,2013-07-20 09:53:00,
2013-07-20 06:00:00,58.0,-99.9,29.63,WSW,245,8.0,9.0,-999,-99.99,,,-99.99,,2013-07-20 10:00:00,
2013-07-20 08:11:00,60.0,-99.9,29.65,WSW,239,11.0,13.0,-999,-99.99,,,-99.99,,2013-07-20 12:11:00,
2013-07-20 12:00:00,61.0,-99.9,29.63,SSW,211,9.0,10.0,-999,-99.99,,,-99.99,,2013-07-20 16:00:00,
2013-07-20 12:44:00,61.0,-99.9,29.63,SSW,211,9.0,10.0,-999,-99.99,,,-99.99,,2013-07-20 16:44:00,
2013-07-20 12:52:00,61.0,-99.9,29.63,SSW,211,9.0,10.0,-999,-99.99,,,-99.99,,2013-07-20 16:52:00,
2013-07-20 13:43:00,60.0,-99.9,29.63,SSW,205,11.0,12.0,-999,-99.99,,,-99.99,,2013-07-20 17:43:00,
2013-07-20 13:53:00,60.0,-99.9,29.63,SSW,205,11.0,12.0,-999,-99.99,,,-99.99,,2013-07-20 17:53:00,
2013-07-20 16:00:00,62.0,-99.9,29.59,SW,222,16.0,18.0,-999,-99.99,,,-99.99,,2013-07-20 20:00:00,
2013-07-20 17:49:00,62.0,-99.9,29.58,SW,222,15.0,16.0,-999,-99.99,,,-99.99,,2013-07-20 21:49:00,
2013-07-20 18:00:00,62.0,-99.9,29.59,SW,217,15.0,17.0,-999,-99.99,,,-99.99,,2013-07-20 22:00:00,
2013-07-20 18:51:00,62.0,-99.9,29.59,SW,217,15.0,17.0,-999,-99.99,,,-99.99,,2013-07-20 22:51:00,
2013-07-20 18:57:00,62.0,-99.9,29.59,SW,217,15.0,17.0,-999,-99.99,,,-99.99,,2013-07-20 22:57:00,
2013-07-20 19:58:00,61.0,-99.9,29.63,West,274,15.0,22.0,-999,-99.99,,,-99.99,,2013-07-20 23:58:00,
2013-07-20 21:00:00,61.0,-99.9,29.64,SW,236,6.0,6.0,-999,-99.99,,,-99.99,,2013-07-21 01:00:00,
2013-07-20 22:00:00,60.0,-99.9,29.66,WSW,254,7.0,8.0,-999,-99.99,,,-99.99,,2013-07-21 02:00:00,
2013-07-20 22:47:00,60.0,-99.9,29.66,WSW,254,7.0,8.0,-999,-99.99,,,-99.99,,2013-07-21 02:47:00,
2013-07-20 22:58:00,60.0,-99.9,29.66,WSW,254,7.0,8.0,-999,-99.99,,,-99.99,,2013-07-21 02:58:00,
2013-07-20 23:00:00,60.0,-99.9,29.69,West,263,3.0,4.0,-999,-99.99,,,-99.99,,2013-07-21 03:00:00,
2013-07-20 23:47:00,60.0,-99.9,29.69,West,263,3.0,4.0,-999,-99.99,,,-99.99,,2013-07-21 03:47:00,